User: anonymous   Login
Location: Unspecified
(0.0000°N, 0.0000°E)
Time: 05:41:22
(UTC+00:00)
Language:

MERIDIAN 6 - Orbit

View from above orbital plane
View from above orbital plane
View from above satellite
View from above satellite

Ground track
Ground track

The orbit data is extracted from the following two-line orbital elements,

1 38995U 12063A   18348.51568025  .00000049  00000-0  10000-3 0  9999
2 38995  65.4594 278.8040 6690370 273.3795 127.7486  2.00606088 44558
Epoch (UTC): 14 December 2018 12:22:34
Eccentricity: 0.6690370
inclination: 65.4594°
perigee height: 2411 km
apogee height: 37945 km
right ascension of ascending node: 278.8040°
argument of perigee: 273.3795°
revolutions per day: 2.00606088
mean anomaly at epoch: 127.7486°
orbit number at epoch: 4455

The dashed part of the orbit path shows where the satellite is in the earth's shadow,  

DLR